Location: ??????
(56.0120°N, 39.1740°E)
Time: 15:52:08
(UTC+00:00)

Terra - Pass Details

Date: 14 April 2026
Orbit: 688 x 691 km, 97.9° (Epoch: 17 May)

Event Time Altitude Azimuth Distance (km) Brightness Sun altitude
Exits shadow 17:36:02 - 168° (SSE) 2,835 4.5 -9.4°
Reaches altitude 10° 17:37:44 10° 170° (S) 2,140 3.9 -9.6°
Maximum altitude 17:42:25 75° 255° (WSW) 720 2.0 -10.1°
Drops below altitude 10° 17:47:09 10° 342° (NNW) 2,155 5.2 -10.7°
Sets 17:49:25 0° 344° (NNW) 3,075 6.0 -10.9°
